OMA254 VOMM-OOMS

Flight info

Callsign OMA254
Flight time N/A
Altitude 34000
Route GULAM2B GULAM P574 BISET/N0460F360 P574 TOTOX L631 MCT
Aircraft B738/M-SDE2E3FGHIRWXY/LB1

Departure

Time 2026-04-30 12:52
Airport Chennai International Airport (VOMM)

Arrival

Time N/A
Airport Muscat International Airport (OOMS)
Time Latitude Longitude Altitude Speed Heading
2026-04-30 12:24 12.98181 80.15872 54 ft 0 kts 157°
2026-04-30 12:37 12.98182 80.15872 54 ft 2 kts 157°
2026-04-30 12:38 12.98205 80.15864 47 ft 4 kts 177°
2026-04-30 12:38 12.98231 80.15868 50 ft 4 kts 204°
2026-04-30 12:38 12.98254 80.15882 46 ft 4 kts 225°
2026-04-30 12:38 12.98270 80.15903 46 ft 4 kts 241°
2026-04-30 12:39 12.98278 80.15919 47 ft 0 kts 248°
2026-04-30 12:42 12.98278 80.15917 49 ft 1 kts 262°
2026-04-30 12:42 12.98288 80.15910 49 ft 2 kts 337°
2026-04-30 12:43 12.98298 80.15901 52 ft 2 kts 288°
2026-04-30 12:43 12.98304 80.15871 51 ft 7 kts 280°
2026-04-30 12:43 12.98319 80.15799 53 ft 13 kts 287°
2026-04-30 12:43 12.98399 80.15795 54 ft 18 kts 63°
2026-04-30 12:44 12.98454 80.15931 52 ft 23 kts 69°
2026-04-30 12:44 12.98488 80.16025 51 ft 4 kts 69°
2026-04-30 12:44 12.98493 80.16039 52 ft 1 kts 69°
2026-04-30 12:44 12.98496 80.16047 53 ft 1 kts 70°
2026-04-30 12:46 12.98497 80.16049 52 ft 3 kts 70°
2026-04-30 12:46 12.98512 80.16091 53 ft 8 kts 69°
2026-04-30 12:47 12.98540 80.16161 51 ft 13 kts 68°
2026-04-30 12:47 12.98580 80.16262 52 ft 17 kts 68°
2026-04-30 12:47 12.98628 80.16390 51 ft 21 kts 69°
2026-04-30 12:47 12.98681 80.16537 52 ft 24 kts 69°
2026-04-30 12:48 12.98744 80.16708 54 ft 27 kts 69°
2026-04-30 12:48 12.98817 80.16897 50 ft 30 kts 68°
2026-04-30 12:48 12.98890 80.17090 54 ft 28 kts 69°
2026-04-30 12:48 12.98966 80.17268 51 ft 26 kts 61°
2026-04-30 12:49 12.99034 80.17434 54 ft 25 kts 69°
2026-04-30 12:49 12.99092 80.17595 50 ft 23 kts 70°
2026-04-30 12:49 12.99155 80.17698 53 ft 15 kts 19°
2026-04-30 12:49 12.99222 80.17767 53 ft 14 kts 66°
2026-04-30 12:50 12.99260 80.17861 54 ft 15 kts 68°
2026-04-30 12:50 12.99305 80.17979 54 ft 21 kts 69°
2026-04-30 12:50 12.99332 80.18053 55 ft 9 kts 70°
2026-04-30 12:50 12.99364 80.18102 55 ft 8 kts 20°
2026-04-30 12:51 12.99418 80.18090 55 ft 8 kts 325°
2026-04-30 12:51 12.99442 80.18040 55 ft 8 kts 267°
2026-04-30 12:51 12.99411 80.17956 55 ft 31 kts 247°
2026-04-30 12:51 12.99245 80.17523 51 ft 98 kts 249°
2026-04-30 12:52 12.98929 80.16675 49 ft 154 kts 250°
2026-04-30 12:52 12.98476 80.15542 201 ft 188 kts 248°
2026-04-30 12:52 12.98130 80.14199 765 ft 205 kts 253°
2026-04-30 12:52 12.97666 80.12764 1300 ft 215 kts 247°
2026-04-30 12:53 12.97576 80.11257 1997 ft 223 kts 283°
2026-04-30 12:53 12.98132 80.09679 2306 ft 249 kts 287°
2026-04-30 12:53 12.98768 80.07929 2567 ft 272 kts 287°
2026-04-30 12:53 12.99422 80.06077 3243 ft 274 kts 287°
2026-04-30 12:54 13.00040 80.04266 4125 ft 269 kts 288°
2026-04-30 12:54 13.00639 80.02458 4887 ft 269 kts 288°
2026-04-30 12:54 13.01236 80.00611 5418 ft 274 kts 288°
2026-04-30 12:54 13.01825 79.98761 5721 ft 276 kts 288°
2026-04-30 12:55 13.02418 79.96879 5730 ft 277 kts 288°
2026-04-30 12:55 13.02809 79.95631 5771 ft 278 kts 288°
2026-04-30 12:55 13.03402 79.93728 6118 ft 286 kts 288°
2026-04-30 12:55 13.04215 79.91114 5990 ft 288 kts 288°
2026-04-30 12:56 13.04624 79.89794 5973 ft 284 kts 288°
2026-04-30 12:56 13.05209 79.87906 5974 ft 278 kts 288°
2026-04-30 12:56 13.05790 79.86030 5973 ft 273 kts 288°
2026-04-30 12:56 13.06369 79.84162 5987 ft 277 kts 288°
2026-04-30 12:57 13.06959 79.82258 5996 ft 281 kts 288°
2026-04-30 12:57 13.07546 79.80360 5986 ft 281 kts 287°
2026-04-30 12:57 13.08078 79.78416 6028 ft 281 kts 284°
2026-04-30 12:57 13.08555 79.76487 6528 ft 284 kts 284°
2026-04-30 12:58 13.09037 79.74501 7207 ft 286 kts 284°
2026-04-30 12:58 13.09521 79.72508 7838 ft 290 kts 284°
2026-04-30 12:58 13.10011 79.70504 8418 ft 296 kts 284°
2026-04-30 12:58 13.10519 79.68435 9084 ft 299 kts 284°
2026-04-30 12:59 13.11035 79.66339 9658 ft 306 kts 284°
2026-04-30 12:59 13.11555 79.64233 10166 ft 314 kts 284°
2026-04-30 12:59 13.12111 79.61983 10289 ft 335 kts 285°
2026-04-30 12:59 13.12703 79.59588 10452 ft 353 kts 284°
2026-04-30 13:00 13.13317 79.57106 10851 ft 362 kts 284°
2026-04-30 13:00 13.13933 79.54611 11326 ft 367 kts 284°
2026-04-30 13:00 13.14565 79.52050 11871 ft 370 kts 285°
2026-04-30 13:00 13.15201 79.49475 12508 ft 371 kts 285°
2026-04-30 13:01 13.15839 79.46890 13014 ft 376 kts 285°
2026-04-30 13:01 13.16475 79.44314 13595 ft 378 kts 285°
2026-04-30 13:01 13.17122 79.41687 14176 ft 378 kts 285°
2026-04-30 13:01 13.17766 79.39076 14823 ft 375 kts 284°
2026-04-30 13:02 13.18407 79.36474 15308 ft 378 kts 284°
2026-04-30 13:02 13.19050 79.33864 15746 ft 381 kts 285°
2026-04-30 13:02 13.19707 79.31208 16266 ft 383 kts 285°
2026-04-30 13:02 13.20358 79.28577 16757 ft 384 kts 285°
2026-04-30 13:03 13.21017 79.25916 17315 ft 385 kts 285°
2026-04-30 13:03 13.21682 79.23230 17717 ft 389 kts 285°
2026-04-30 13:03 13.22354 79.20513 18148 ft 392 kts 285°
2026-04-30 13:03 13.23020 79.17819 18528 ft 395 kts 284°
2026-04-30 13:04 13.23697 79.15080 18928 ft 396 kts 284°
2026-04-30 13:04 13.24377 79.12323 19411 ft 396 kts 284°
2026-04-30 13:04 13.25055 79.09573 19786 ft 398 kts 284°
2026-04-30 13:04 13.25730 79.06835 20165 ft 400 kts 284°
2026-04-30 13:05 13.26416 79.04049 20548 ft 402 kts 284°
2026-04-30 13:05 13.27108 79.01239 20881 ft 405 kts 284°
2026-04-30 13:05 13.27792 78.98462 21234 ft 407 kts 284°
2026-04-30 13:06 13.29199 78.92775 21999 ft 411 kts 286°
2026-04-30 13:06 13.30323 78.90107 22282 ft 413 kts 302°
2026-04-30 13:06 13.31920 78.87631 22664 ft 414 kts 303°
2026-04-30 13:06 13.33522 78.85155 22979 ft 417 kts 303°
2026-04-30 13:07 13.35115 78.82671 23285 ft 419 kts 302°
2026-04-30 13:07 13.36706 78.80171 23581 ft 421 kts 302°
2026-04-30 13:07 13.38311 78.77631 23847 ft 423 kts 302°
2026-04-30 13:07 13.39914 78.75084 24119 ft 424 kts 302°
2026-04-30 13:08 13.41495 78.72565 24394 ft 425 kts 302°
2026-04-30 13:08 13.43107 78.69991 24649 ft 427 kts 302°
2026-04-30 13:08 13.44721 78.67413 24904 ft 428 kts 302°
2026-04-30 13:08 13.46324 78.64851 25114 ft 431 kts 302°
2026-04-30 13:09 13.47953 78.62248 25345 ft 433 kts 302°
2026-04-30 13:09 13.49586 78.59639 25596 ft 434 kts 302°
2026-04-30 13:09 13.51225 78.57017 25851 ft 435 kts 302°
2026-04-30 13:09 13.52841 78.54435 26062 ft 436 kts 302°
2026-04-30 13:10 13.54489 78.51797 26298 ft 438 kts 302°
2026-04-30 13:10 13.56138 78.49160 26518 ft 439 kts 302°
2026-04-30 13:10 13.57795 78.46507 26731 ft 441 kts 302°
2026-04-30 13:10 13.59460 78.43842 26957 ft 442 kts 302°
2026-04-30 13:11 13.61107 78.41204 27174 ft 443 kts 302°
2026-04-30 13:11 13.62780 78.38524 27376 ft 445 kts 302°
2026-04-30 13:11 13.64459 78.35832 27590 ft 447 kts 302°
2026-04-30 13:11 13.66128 78.33156 27768 ft 448 kts 302°
2026-04-30 13:12 13.67823 78.30439 27971 ft 449 kts 302°
2026-04-30 13:12 13.69513 78.27728 28173 ft 451 kts 302°
2026-04-30 13:12 13.71209 78.25007 28365 ft 452 kts 302°
2026-04-30 13:13 13.74593 78.19574 28736 ft 454 kts 302°
2026-04-30 13:13 13.76312 78.16813 28928 ft 455 kts 302°
2026-04-30 13:13 13.79714 78.11346 29469 ft 453 kts 302°
2026-04-30 13:14 13.81390 78.08652 29772 ft 452 kts 302°
2026-04-30 13:14 13.83093 78.05913 30000 ft 452 kts 302°
2026-04-30 13:14 13.86491 78.00445 30433 ft 451 kts 302°
2026-04-30 13:15 13.88162 77.97755 30666 ft 450 kts 302°
2026-04-30 13:15 13.91538 77.92315 31060 ft 451 kts 302°
2026-04-30 13:15 13.93237 77.89577 31209 ft 452 kts 303°
2026-04-30 13:16 13.94929 77.86850 31441 ft 452 kts 303°
2026-04-30 13:16 13.96632 77.84126 31708 ft 450 kts 303°
2026-04-30 13:16 13.98334 77.81461 31943 ft 449 kts 304°
2026-04-30 13:17 14.01791 77.76117 32341 ft 449 kts 304°
2026-04-30 13:17 14.03531 77.73428 32561 ft 449 kts 304°
2026-04-30 13:17 14.06989 77.68066 33002 ft 448 kts 304°
2026-04-30 13:18 14.08696 77.65412 33199 ft 448 kts 304°
2026-04-30 13:18 14.12117 77.60084 33639 ft 447 kts 304°
2026-04-30 13:18 14.13832 77.57412 33851 ft 446 kts 304°
2026-04-30 13:19 14.17281 77.52033 33880 ft 449 kts 304°
2026-04-30 13:19 14.20711 77.46681 33862 ft 447 kts 304°
2026-04-30 13:20 14.24119 77.41359 33871 ft 445 kts 304°
2026-04-30 13:20 14.27515 77.36054 33874 ft 443 kts 304°
2026-04-30 13:21 14.30908 77.30750 33863 ft 441 kts 304°
2026-04-30 13:22 14.35968 77.22834 33863 ft 441 kts 304°
2026-04-30 13:22 14.41037 77.14896 33875 ft 443 kts 304°
2026-04-30 13:23 14.46141 77.06895 33870 ft 448 kts 304°
2026-04-30 13:24 14.53034 76.96077 33864 ft 453 kts 304°
2026-04-30 13:25 14.59960 76.85193 33855 ft 454 kts 304°
2026-04-30 13:26 14.68591 76.71607 33857 ft 450 kts 304°
2026-04-30 13:28 14.77127 76.58149 33871 ft 447 kts 304°
2026-04-30 13:28 14.82212 76.50121 33868 ft 446 kts 304°
2026-04-30 13:29 14.89010 76.39376 33872 ft 447 kts 304°
2026-04-30 13:31 14.97525 76.25895 33862 ft 450 kts 304°
2026-04-30 13:32 15.06106 76.12287 33858 ft 453 kts 304°
2026-04-30 13:33 15.12972 76.01378 33853 ft 454 kts 304°
2026-04-30 13:34 15.17741 75.92872 33854 ft 455 kts 299°
2026-04-30 13:35 15.23654 75.81328 33849 ft 454 kts 300°
2026-04-30 13:36 15.29646 75.69860 33855 ft 451 kts 300°